Time,TemperatureF,DewpointF,PressureIn,WindDirection,WindDirectionDegrees,WindSpeedMPH,WindSpeedGustMPH,Humidity,HourlyPrecipIn,Conditions,Clouds,dailyrainin,SoftwareType,DateUTC
2013-02-24 00:01:00,21.0,17.0,29.91,SW,218,3.0,5.0,83,0.00,,,0.03,,2013-02-24 06:01:00,
2013-02-24 00:11:00,21.0,17.0,29.91,SW,218,3.0,5.0,83,0.00,,,0.03,,2013-02-24 06:11:00,
2013-02-24 00:21:00,20.0,16.0,29.92,SW,222,3.0,5.0,83,0.00,,,0.03,,2013-02-24 06:21:00,
2013-02-24 00:31:00,20.0,16.0,29.92,SW,220,3.0,5.0,84,0.00,,,0.03,,2013-02-24 06:31:00,
2013-02-24 00:42:00,20.0,16.0,29.92,SW,220,3.0,5.0,84,0.00,,,0.03,,2013-02-24 06:42:00,
2013-02-24 00:52:00,19.0,15.0,29.92,SW,219,2.0,4.0,85,0.00,,,0.03,,2013-02-24 06:52:00,
2013-02-24 01:01:00,18.0,14.0,29.92,SW,219,2.0,3.0,85,0.00,,,0.03,,2013-02-24 07:01:00,
2013-02-24 01:12:00,18.0,14.0,29.92,SW,219,2.0,3.0,85,0.00,,,0.03,,2013-02-24 07:12:00,
2013-02-24 01:21:00,17.0,14.0,29.93,SW,219,3.0,4.0,87,0.00,,,0.03,,2013-02-24 07:21:00,
2013-02-24 01:31:00,16.0,13.0,29.94,SSW,208,4.0,6.0,87,0.00,,,0.03,,2013-02-24 07:31:00,
2013-02-24 01:42:00,16.0,13.0,29.94,SSW,208,4.0,6.0,87,0.00,,,0.03,,2013-02-24 07:42:00,
2013-02-24 01:52:00,16.0,13.0,29.94,SSW,200,3.0,5.0,88,0.00,,,0.03,,2013-02-24 07:52:00,
2013-02-24 02:01:00,15.0,12.0,29.94,SSW,200,2.0,3.0,87,0.00,,,0.03,,2013-02-24 08:01:00,
2013-02-24 02:11:00,15.0,12.0,29.94,SSW,200,2.0,3.0,87,0.00,,,0.03,,2013-02-24 08:11:00,
2013-02-24 02:22:00,15.0,12.0,29.94,SSW,201,1.0,3.0,88,0.00,,,0.03,,2013-02-24 08:22:00,
2013-02-24 02:31:00,15.0,12.0,29.94,SSW,200,2.0,3.0,88,0.00,,,0.03,,2013-02-24 08:31:00,
2013-02-24 02:42:00,15.0,12.0,29.94,SSW,200,2.0,3.0,88,0.00,,,0.03,,2013-02-24 08:42:00,
2013-02-24 02:53:00,14.0,11.0,29.94,SSW,200,2.0,3.0,88,0.00,,,0.03,,2013-02-24 08:53:00,
2013-02-24 03:01:00,14.0,11.0,29.95,SSW,200,3.0,4.0,89,0.00,,,0.03,,2013-02-24 09:01:00,
2013-02-24 03:11:00,14.0,11.0,29.95,SSW,200,3.0,4.0,89,0.00,,,0.03,,2013-02-24 09:11:00,
2013-02-24 03:21:00,13.0,10.0,29.95,SSW,202,4.0,6.0,88,0.00,,,0.03,,2013-02-24 09:21:00,
2013-02-24 03:31:00,14.0,11.0,29.95,SSW,213,3.0,5.0,88,0.00,,,0.03,,2013-02-24 09:31:00,
2013-02-24 03:42:00,14.0,11.0,29.95,SSW,213,3.0,5.0,88,0.00,,,0.03,,2013-02-24 09:42:00,
2013-02-24 03:51:00,14.0,11.0,29.96,WSW,242,3.0,5.0,88,0.00,,,0.03,,2013-02-24 09:51:00,
2013-02-24 04:01:00,14.0,11.0,29.95,WSW,242,3.0,5.0,88,0.00,,,0.03,,2013-02-24 10:01:00,
2013-02-24 04:11:00,14.0,11.0,29.95,WSW,242,3.0,5.0,88,0.00,,,0.03,,2013-02-24 10:11:00,
2013-02-24 04:21:00,12.0,9.0,29.95,WSW,241,1.0,3.0,88,0.00,,,0.03,,2013-02-24 10:21:00,
2013-02-24 04:31:00,11.0,8.0,29.96,WSW,241,1.0,3.0,87,0.00,,,0.03,,2013-02-24 10:31:00,
2013-02-24 04:41:00,11.0,8.0,29.96,WSW,241,1.0,3.0,87,0.00,,,0.03,,2013-02-24 10:41:00,
2013-02-24 04:52:00,11.0,8.0,29.96,WSW,241,2.0,3.0,88,0.00,,,0.03,,2013-02-24 10:52:00,
2013-02-24 05:01:00,10.0,7.0,29.96,WSW,241,1.0,2.0,87,0.00,,,0.03,,2013-02-24 11:01:00,
2013-02-24 05:11:00,10.0,7.0,29.96,WSW,241,1.0,2.0,87,0.00,,,0.03,,2013-02-24 11:11:00,
2013-02-24 05:21:00,7.0,4.0,29.96,North,0,0.0,0.0,86,0.00,,,0.03,,2013-02-24 11:21:00,
2013-02-24 05:32:00,7.0,4.0,29.97,WSW,241,1.0,2.0,86,0.00,,,0.03,,2013-02-24 11:32:00,
2013-02-24 05:41:00,7.0,4.0,29.97,WSW,241,1.0,2.0,86,0.00,,,0.03,,2013-02-24 11:41:00,
2013-02-24 05:52:00,7.0,4.0,29.98,WSW,241,1.0,2.0,86,0.00,,,0.03,,2013-02-24 11:52:00,
2013-02-24 06:01:00,7.0,4.0,29.98,WSW,240,1.0,2.0,86,0.00,,,0.03,,2013-02-24 12:01:00,
2013-02-24 06:11:00,7.0,4.0,29.98,WSW,240,1.0,2.0,86,0.00,,,0.03,,2013-02-24 12:11:00,
2013-02-24 06:21:00,6.0,3.0,29.98,WSW,241,1.0,2.0,86,0.00,,,0.03,,2013-02-24 12:21:00,
2013-02-24 06:32:00,6.0,3.0,29.99,WSW,241,1.0,2.0,86,0.00,,,0.03,,2013-02-24 12:32:00,
2013-02-24 06:46:00,6.0,3.0,29.99,WSW,241,1.0,2.0,86,0.00,,,0.03,,2013-02-24 12:46:00,
2013-02-24 06:55:00,6.0,3.0,29.99,WSW,241,1.0,2.0,86,0.00,,,0.03,,2013-02-24 12:55:00,
2013-02-24 07:09:00,5.0,2.0,29.99,WSW,241,2.0,3.0,85,0.00,,,0.03,,2013-02-24 13:09:00,
2013-02-24 07:16:00,5.0,2.0,29.99,WSW,241,2.0,3.0,85,0.00,,,0.03,,2013-02-24 13:16:00,
2013-02-24 07:25:00,5.0,2.0,29.99,WSW,241,2.0,4.0,86,0.00,,,0.03,,2013-02-24 13:25:00,
2013-02-24 07:33:00,5.0,2.0,30.00,WSW,240,1.0,2.0,86,0.00,,,0.03,,2013-02-24 13:33:00,
2013-02-24 07:44:00,5.0,2.0,30.00,WSW,240,1.0,2.0,86,0.00,,,0.03,,2013-02-24 13:44:00,
2013-02-24 07:52:00,6.0,3.0,30.01,WSW,240,1.0,3.0,86,0.00,,,0.03,,2013-02-24 13:52:00,
2013-02-24 08:13:00,8.0,5.0,30.01,North,0,0.0,0.0,87,0.00,,,0.03,,2013-02-24 14:13:00,
2013-02-24 08:23:00,8.0,5.0,30.01,North,0,0.0,0.0,87,0.00,,,0.03,,2013-02-24 14:23:00,
2013-02-24 08:33:00,9.0,6.0,30.01,WSW,240,1.0,3.0,86,0.00,,,0.03,,2013-02-24 14:33:00,
2013-02-24 08:44:00,9.0,6.0,30.01,WSW,240,1.0,3.0,86,0.00,,,0.03,,2013-02-24 14:44:00,
2013-02-24 08:53:00,11.0,8.0,30.02,WSW,240,2.0,3.0,87,0.00,,,0.03,,2013-02-24 14:53:00,
2013-02-24 09:02:00,13.0,10.0,30.03,SSW,202,3.0,5.0,87,0.00,,,0.03,,2013-02-24 15:02:00,
2013-02-24 09:13:00,13.0,10.0,30.03,SSW,202,3.0,5.0,87,0.00,,,0.03,,2013-02-24 15:13:00,
2013-02-24 09:22:00,14.0,11.0,30.03,SSW,199,1.0,3.0,88,0.00,,,0.03,,2013-02-24 15:22:00,
2013-02-24 09:32:00,15.0,12.0,30.03,SSW,199,2.0,4.0,88,0.00,,,0.03,,2013-02-24 15:32:00,
2013-02-24 09:42:00,15.0,12.0,30.03,SSW,199,2.0,4.0,88,0.00,,,0.03,,2013-02-24 15:42:00,
2013-02-24 09:52:00,17.0,14.0,30.03,SSW,198,0.0,2.0,87,0.00,,,0.03,,2013-02-24 15:52:00,
2013-02-24 10:01:00,18.0,14.0,30.04,SSW,199,2.0,3.0,85,0.00,,,0.03,,2013-02-24 16:01:00,
2013-02-24 10:11:00,18.0,14.0,30.04,SSW,199,2.0,3.0,85,0.00,,,0.03,,2013-02-24 16:11:00,
2013-02-24 10:21:00,19.0,15.0,30.04,SSW,199,1.0,2.0,83,0.00,,,0.03,,2013-02-24 16:21:00,
2013-02-24 10:32:00,21.0,16.0,30.04,SSW,198,1.0,3.0,81,0.00,,,0.03,,2013-02-24 16:32:00,
2013-02-24 10:42:00,21.0,16.0,30.04,SSW,198,1.0,3.0,81,0.00,,,0.03,,2013-02-24 16:42:00,
2013-02-24 10:52:00,21.0,16.0,30.04,SSW,199,2.0,3.0,79,0.00,,,0.03,,2013-02-24 16:52:00,
2013-02-24 11:01:00,23.0,17.0,30.05,SSW,199,2.0,4.0,78,0.00,,,0.03,,2013-02-24 17:01:00,
2013-02-24 11:11:00,23.0,17.0,30.05,SSW,199,2.0,4.0,78,0.00,,,0.03,,2013-02-24 17:11:00,
2013-02-24 11:21:00,24.0,18.0,30.05,South,178,3.0,4.0,79,0.00,,,0.03,,2013-02-24 17:21:00,
2013-02-24 11:32:00,26.0,19.0,30.05,South,178,2.0,4.0,76,0.00,,,0.03,,2013-02-24 17:32:00,
2013-02-24 11:41:00,26.0,19.0,30.05,South,178,2.0,4.0,76,0.00,,,0.03,,2013-02-24 17:41:00,
2013-02-24 11:52:00,26.0,19.0,30.05,South,178,2.0,4.0,75,0.00,,,0.03,,2013-02-24 17:52:00,
2013-02-24 12:01:00,27.0,20.0,30.05,South,178,2.0,4.0,74,0.00,,,0.02,,2013-02-24 18:01:00,
2013-02-24 12:11:00,27.0,20.0,30.05,South,178,2.0,4.0,74,0.00,,,0.02,,2013-02-24 18:11:00,
2013-02-24 12:22:00,28.0,20.0,30.05,South,176,3.0,5.0,72,0.00,,,0.02,,2013-02-24 18:22:00,
2013-02-24 12:32:00,29.0,20.0,30.05,SSE,149,4.0,6.0,69,0.00,,,0.02,,2013-02-24 18:32:00,
2013-02-24 12:42:00,29.0,20.0,30.05,SSE,149,4.0,6.0,69,0.00,,,0.02,,2013-02-24 18:42:00,
2013-02-24 12:51:00,30.0,21.0,30.05,SSE,163,4.0,7.0,68,0.00,,,0.02,,2013-02-24 18:51:00,
2013-02-24 13:01:00,31.0,21.0,30.05,South,172,6.0,10.0,67,0.00,,,0.01,,2013-02-24 19:01:00,
2013-02-24 13:11:00,31.0,21.0,30.05,South,172,6.0,10.0,67,0.00,,,0.01,,2013-02-24 19:11:00,
2013-02-24 13:22:00,31.0,21.0,30.05,SSE,164,5.0,9.0,67,0.00,,,0.01,,2013-02-24 19:22:00,
2013-02-24 13:32:00,31.0,21.0,30.05,South,170,5.0,9.0,67,0.00,,,0.01,,2013-02-24 19:32:00,
2013-02-24 13:41:00,31.0,21.0,30.05,South,170,5.0,9.0,67,0.00,,,0.01,,2013-02-24 19:41:00,
2013-02-24 13:51:00,31.0,21.0,30.05,SSE,165,4.0,6.0,66,0.00,,,0.01,,2013-02-24 19:51:00,
2013-02-24 14:02:00,31.0,21.0,30.05,South,171,2.0,5.0,66,0.00,,,0.01,,2013-02-24 20:02:00,
2013-02-24 14:11:00,31.0,21.0,30.05,South,171,2.0,5.0,66,0.00,,,0.01,,2013-02-24 20:11:00,
2013-02-24 14:21:00,32.0,22.0,30.04,South,176,3.0,6.0,65,0.00,,,0.01,,2013-02-24 20:21:00,
2013-02-24 14:32:00,32.0,21.0,30.04,South,185,3.0,7.0,64,0.00,,,0.01,,2013-02-24 20:32:00,
2013-02-24 14:42:00,32.0,21.0,30.04,South,185,3.0,7.0,64,0.00,,,0.01,,2013-02-24 20:42:00,
2013-02-24 14:52:00,32.0,20.0,30.03,SSE,159,2.0,5.0,62,0.01,,,0.02,,2013-02-24 20:52:00,
2013-02-24 15:01:00,34.0,22.0,30.03,NNW,329,2.0,6.0,61,0.01,,,0.02,,2013-02-24 21:01:00,
2013-02-24 15:11:00,34.0,22.0,30.03,NNW,329,2.0,6.0,61,0.01,,,0.02,,2013-02-24 21:11:00,
2013-02-24 15:21:00,33.0,21.0,30.03,North,353,1.0,4.0,60,0.01,,,0.02,,2013-02-24 21:21:00,
2013-02-24 15:32:00,33.0,21.0,30.03,NNW,339,1.0,3.0,61,0.01,,,0.01,,2013-02-24 21:32:00,
2013-02-24 15:42:00,33.0,21.0,30.03,NNW,339,1.0,3.0,61,0.01,,,0.01,,2013-02-24 21:42:00,
2013-02-24 15:52:00,33.0,21.0,30.03,NNW,339,0.0,2.0,60,0.00,,,0.01,,2013-02-24 21:52:00,
2013-02-24 16:01:00,33.0,21.0,30.03,NNW,339,0.0,2.0,60,0.00,,,0.01,,2013-02-24 22:01:00,
2013-02-24 16:11:00,33.0,21.0,30.03,NNW,339,0.0,2.0,60,0.00,,,0.01,,2013-02-24 22:11:00,
2013-02-24 16:21:00,32.0,20.0,30.03,ENE,67,2.0,4.0,62,0.00,,,0.01,,2013-02-24 22:21:00,
2013-02-24 16:31:00,32.0,20.0,30.03,ENE,67,1.0,3.0,62,0.00,,,0.01,,2013-02-24 22:31:00,
2013-02-24 16:42:00,32.0,20.0,30.03,ENE,67,1.0,3.0,62,0.00,,,0.01,,2013-02-24 22:42:00,
2013-02-24 16:52:00,31.0,20.0,30.03,ENE,67,1.0,2.0,64,0.00,,,0.01,,2013-02-24 22:52:00,
2013-02-24 17:02:00,31.0,21.0,30.02,ENE,68,0.0,1.0,66,0.00,,,0.01,,2013-02-24 23:02:00,
2013-02-24 17:11:00,31.0,21.0,30.02,ENE,68,0.0,1.0,66,0.00,,,0.01,,2013-02-24 23:11:00,
2013-02-24 17:21:00,32.0,21.0,30.03,North,0,0.0,0.0,64,0.00,,,0.01,,2013-02-24 23:21:00,
2013-02-24 17:31:00,32.0,21.0,30.02,North,0,0.0,0.0,63,0.00,,,0.01,,2013-02-24 23:31:00,
2013-02-24 17:41:00,32.0,21.0,30.02,North,0,0.0,0.0,63,0.00,,,0.01,,2013-02-24 23:41:00,
2013-02-24 17:52:00,31.0,20.0,30.02,ENE,67,1.0,3.0,64,0.00,,,0.01,,2013-02-24 23:52:00,
2013-02-24 18:01:00,30.0,20.0,30.03,North,0,0.0,0.0,65,0.00,,,0.01,,2013-02-25 00:01:00,
2013-02-24 18:11:00,30.0,20.0,30.03,North,0,0.0,0.0,65,0.00,,,0.01,,2013-02-25 00:11:00,
2013-02-24 18:21:00,28.0,20.0,30.03,North,0,0.0,0.0,72,0.00,,,0.01,,2013-02-25 00:21:00,
2013-02-24 18:31:00,28.0,20.0,30.03,ENE,67,1.0,3.0,72,0.00,,,0.01,,2013-02-25 00:31:00,
2013-02-24 18:42:00,28.0,20.0,30.03,ENE,67,1.0,3.0,72,0.00,,,0.01,,2013-02-25 00:42:00,
2013-02-24 18:51:00,27.0,19.0,30.03,North,0,0.0,0.0,72,0.00,,,0.01,,2013-02-25 00:51:00,
2013-02-24 19:01:00,27.0,19.0,30.04,ENE,67,1.0,2.0,72,0.00,,,0.01,,2013-02-25 01:01:00,
2013-02-24 19:11:00,27.0,19.0,30.04,ENE,67,1.0,2.0,72,0.00,,,0.01,,2013-02-25 01:11:00,
2013-02-24 19:21:00,25.0,19.0,30.04,North,0,0.0,0.0,77,0.00,,,0.01,,2013-02-25 01:21:00,
2013-02-24 19:31:00,23.0,18.0,30.05,ENE,68,0.0,1.0,81,0.00,,,0.01,,2013-02-25 01:31:00,
2013-02-24 19:42:00,23.0,18.0,30.05,ENE,68,0.0,1.0,81,0.00,,,0.01,,2013-02-25 01:42:00,
2013-02-24 19:51:00,23.0,17.0,30.05,North,0,0.0,0.0,79,0.00,,,0.01,,2013-02-25 01:51:00,
2013-02-24 20:01:00,23.0,18.0,30.05,ENE,67,1.0,2.0,82,0.00,,,0.01,,2013-02-25 02:01:00,
2013-02-24 20:11:00,23.0,18.0,30.05,ENE,67,1.0,2.0,82,0.00,,,0.01,,2013-02-25 02:11:00,
2013-02-24 20:21:00,22.0,18.0,30.05,ENE,68,0.0,1.0,84,0.00,,,0.01,,2013-02-25 02:21:00,
2013-02-24 20:31:00,20.0,16.0,30.06,North,0,0.0,0.0,85,0.00,,,0.01,,2013-02-25 02:31:00,
2013-02-24 20:41:00,20.0,16.0,30.06,North,0,0.0,0.0,85,0.00,,,0.01,,2013-02-25 02:41:00,
2013-02-24 20:52:00,18.0,14.0,30.05,ENE,67,1.0,3.0,85,0.00,,,0.01,,2013-02-25 02:52:00,
2013-02-24 21:01:00,18.0,15.0,30.05,ENE,67,2.0,4.0,86,0.00,,,0.01,,2013-02-25 03:01:00,
2013-02-24 21:11:00,18.0,15.0,30.05,ENE,67,2.0,4.0,86,0.00,,,0.01,,2013-02-25 03:11:00,
2013-02-24 21:21:00,18.0,15.0,30.05,ENE,67,2.0,4.0,86,0.00,,,0.01,,2013-02-25 03:21:00,
2013-02-24 21:31:00,18.0,15.0,30.05,North,0,0.0,0.0,87,0.00,,,0.01,,2013-02-25 03:31:00,
2013-02-24 21:41:00,18.0,15.0,30.05,North,0,0.0,0.0,87,0.00,,,0.01,,2013-02-25 03:41:00,
2013-02-24 21:51:00,17.0,14.0,30.05,ENE,68,0.0,1.0,86,0.00,,,0.01,,2013-02-25 03:51:00,
2013-02-24 22:01:00,18.0,15.0,30.05,ENE,67,2.0,3.0,87,0.00,,,0.01,,2013-02-25 04:01:00,
2013-02-24 22:11:00,18.0,15.0,30.05,ENE,67,2.0,3.0,87,0.00,,,0.01,,2013-02-25 04:11:00,
2013-02-24 22:21:00,18.0,15.0,30.05,ENE,67,2.0,3.0,87,0.00,,,0.01,,2013-02-25 04:21:00,
2013-02-24 22:31:00,15.0,12.0,30.06,ENE,68,0.0,2.0,87,0.00,,,0.01,,2013-02-25 04:31:00,
2013-02-24 22:41:00,15.0,12.0,30.06,ENE,68,0.0,2.0,87,0.00,,,0.01,,2013-02-25 04:41:00,
2013-02-24 22:51:00,15.0,12.0,30.06,North,0,0.0,0.0,88,0.00,,,0.01,,2013-02-25 04:51:00,
2013-02-24 23:01:00,14.0,11.0,30.06,ENE,67,1.0,3.0,88,0.00,,,0.01,,2013-02-25 05:01:00,
2013-02-24 23:11:00,14.0,11.0,30.06,ENE,67,1.0,3.0,88,0.00,,,0.01,,2013-02-25 05:11:00,
2013-02-24 23:22:00,15.0,12.0,30.06,ENE,68,0.0,1.0,88,0.00,,,0.01,,2013-02-25 05:22:00,
2013-02-24 23:31:00,13.0,10.0,30.06,ENE,67,1.0,2.0,88,0.00,,,0.01,,2013-02-25 05:31:00,
2013-02-24 23:42:00,13.0,10.0,30.06,ENE,67,1.0,2.0,88,0.00,,,0.01,,2013-02-25 05:42:00,
2013-02-24 23:52:00,12.0,9.0,30.06,ENE,67,2.0,2.0,88,0.00,,,0.01,,2013-02-25 05:52:00,